sat.trackr.live / text

‹ back to catalog

OPS 5712 (P/L 160)

NORAD 2826 · 1967-053A

PAYLOAD ACTIVE UNKNOWN

§ Identity

Operator
Country
US
Launch date
1967-05-31
Launch site
AFWTR
Launch vehicle
Mass (kg)
RCS (m²)
0.40

Purposes: military

External: N2YO · Heavens-Above · Gunter

§ Orbital elements

Epoch: 2026-09-20T04:27:59.751936Z

Period
97.38 min
Inclination
69.9161°
Eccentricity
0.0003848
Mean motion
14.78769283 rev/d
Perigee alt
630.5 km
Apogee alt
635.9 km
Semi-major
7,011.3 km
B*
5.6982e-4
RAAN
165.2448°
Arg perigee
269.0330°
Mean anomaly
91.0377°
Rev number
8,027

§ Raw data

OPS 5712 (P/L 160)1 02826U 67053A   26263.18610824  .00004117  00000+0  56982-3 0  99932 02826  69.9161 165.2448 0003848 269.0330  91.0377 14.78769283 80277

JSON: /api/v1/satellites/2826 · /tle

For live sub-satellite position, see the globe view (requires WebGL).

§ Visibility from observer

Set your observer location to see the next 7 days of passes ≥ 10°. The values pass through the URL so the page stays shareable.

No JS? Fill the form by hand. The geolocation button needs JavaScript.